Location: Unspecified
(0.0000°N, 0.0000°E)
Time: 12:08:35
(UTC+00:00)

STARLINK 1052 - Pass Details

Date: 11 December 2019
Orbit: 350 x 353 km, 53.0° (Epoch: 11 December)

Event Time Altitude Azimuth Distance (km) Brightness Sun altitude
Rises 19:48:30 0° 210° (SSW) 2,142 7.5 -26.3°
Reaches altitude 10° 19:50:31 10° 207° (SSW) 1,300 6.2 -26.8°
Enters shadow 19:50:42 11° 206° (SSW) 1,222 6.0 -26.8°
